Location: Betpouey
(42.8833°N, 0.0333°E)
Time: 06:32:29
(UTC+00:00)

Meteor 2-13 Rocket - Pass Details

Date: 29 June 2021
Orbit: 935 x 958 km, 82.5° (Epoch: 26 July)

Event Time Altitude Azimuth Distance (km) Brightness Sun altitude
Exits shadow 21:58:10 13° 100° (E) 2,489 6.3 -17.9°
Maximum altitude 22:00:01 15° 80° (E) 2,374 6.3 -18.1°
Drops below altitude 10° 22:03:10 10° 49° (NE) 2,694 7.0 -18.4°
Sets 22:06:52 0° 27° (NNE) 3,643 8.0 -18.7°
